Location: Foligno
(42.9600°N, 12.7050°E)
Time: 03:36:44
(UTC+02:00)

ISS - Pass Details

Date: 20 May 2018
Orbit: 402 x 407 km, 51.6° (Epoch: 23 May)

Event Time Altitude Azimuth Distance (km) Brightness Sun altitude
Rises 21:30:27 0° 202° (SSW) 2,305 -0.2 -9.9°
Reaches altitude 10° 21:32:50 10° 185° (S) 1,450 -1.4 -10.2°
Maximum altitude 21:35:20 20° 135° (SE) 983 -2.5 -10.6°
Drops below altitude 10° 21:37:50 10° 84° (E) 1,456 -1.4 -10.9°
Sets 21:40:14 0° 68° (ENE) 2,318 -0.2 -11.2°
